User: anonymous   Login
Location: Unspecified
(0.0000°N, 0.0000°E)
Time: 19:29:07
(UTC+00:00)
Language:

Vela 1A - Orbit

View from above orbital plane
View from above orbital plane
View from above satellite
View from above satellite

Ground track
Ground track

The orbit data is extracted from the following two-line orbital elements,

1 00692U 63039C   14353.97029475 -.00000605  00000-0  00000+0 0   214
2 00692 032.9475 007.5864 5435601 147.8190 358.8648 00.22192396 41307
Epoch (UTC): 19 December 2014 23:17:13
Eccentricity: 0.5435601
inclination: 32.9475°
perigee height: 46221 km
apogee height: 171498 km
right ascension of ascending node: 7.5864°
argument of perigee: 147.8190°
revolutions per day: 0.22192396
mean anomaly at epoch: 358.8648°
orbit number at epoch: 4130

The dashed part of the orbit path shows where the satellite is in the earth's shadow,  

DLR